Regional Weather Roundup
Issued by NWS Little Rock, AR

Home | Current Version | Previous Version | Text Only | Print | Product List | Glossary On
Versions: 1 2 3 4 5 6 7 8 9 10 11 12 13 14 15 16 17 18 19 20 21 22 23 24 25 26 27 28 29 30 31 32 33 34 35 36 37 38 39 40 41 42 43 44 45 46 47
000
ASUS44 KLZK 211105
RWRLZK

WEATHER ROUNDUP FOR ARKANSAS
NATIONAL WEATHER SERVICE LITTLE ROCK AR
600 AM CDT SUN SEP 21 2014

NOTE: "FAIR" INDICATES FEW OR NO CLOUDS BELOW 12,000 FEET WITH NO
SIGNIFICANT WEATHER AND/OR OBSTRUCTIONS TO VISIBILITY.

ARZ001-003-010-029-211200-
NORTHWEST ARKANSAS

CITY           SKY/WX    TMP DP  RH WIND       PRES   REMARKS
FAYETTEVILLE   CLOUDY    66  65  96 S5        30.06S
FORT SMITH     CLEAR     69  67  93 CALM      30.03R
HARRISON       MOCLDY    72  66  81 W6        30.05R
BENTONVILLE    CLOUDY    70  64  83 CALM      30.07R
ROGERS         CLOUDY    71  66  84 SW3       30.07R
SILOAM SPGS    CLOUDY    68  63  83 S3        30.07R
HIGHFILL       CLOUDY    69  67  93 SW3       30.06R
SPRINGDALE     CLOUDY    70  66  88 CALM      30.08
$$

ARZ004-005-016-211200-
NORTH CENTRAL ARKANSAS

CITY           SKY/WX    TMP DP  RH WIND       PRES   REMARKS
BATESVILLE     CLEAR     68  64  88 CALM      30.00S
FLIPPIN        PTCLDY    70  63  78 CALM      30.02R
MTN HOME       PTCLDY    69  66  90 W3        30.02R
$$

ARZ040-041-211200-
WEST CENTRAL ARKANSAS

CITY           SKY/WX    TMP DP  RH WIND       PRES   REMARKS
MENA             N/A     64  64 100 CALM      30.07R
MOUNT IDA      CLEAR     65  63  93 CALM      30.03R FOG
$$

ARZ009-017-025-026-028-211200-
NORTHEAST ARKANSAS

CITY           SKY/WX    TMP DP  RH WIND       PRES   REMARKS
CORNING          N/A     66  66 100 SW8       29.97F
JONESBORO      CLEAR     70  66  87 W5        29.99R
NEWPORT        CLEAR     69  67  93 W3        30.01R
WALNUT RIDGE   CLEAR     66  54  63 SW6       29.98S
BLYTHEVILLE    CLEAR     69  67  93 SW6       29.98S
$$

ARZ022-023-033-042-044-211200-
CENTRAL ARKANSAS

CITY           SKY/WX    TMP DP  RH WIND       PRES   REMARKS
LITTLE ROCK    CLEAR     69  65  86 W3        30.01R
N LITTLE ROCK    N/A     72  69  88 W5        30.01R
JACKSONVILLE   CLEAR     66  65  97 SW3       30.01R
SEARCY         CLEAR     65  65 100 CALM      30.01R
HOT SPRINGS    MOCLDY    68  67  96 W3        30.04R
RUSSELLVILLE   CLEAR     66  65  96 CALM      30.02S FOG
CLINTON        FAIR      63  63 100 CALM      30.03R FOG
$$

ARZ036-211200-
EAST ARKANSAS

CITY           SKY/WX    TMP DP  RH WIND       PRES   REMARKS
WEST MEMPHIS   CLEAR     67  67 100 CALM      29.99R
$$

ARZ050-053-066-070-073-211200-
SOUTHWEST ARKANSAS

CITY           SKY/WX    TMP DP  RH WIND       PRES   REMARKS
ARKADELPHIA    FOG       67  67 100 CALM      30.03R VSB 1/2
CAMDEN         CLEAR     64  63  94 CALM      30.02R FOG
TEXARKANA      CLEAR     69  68  96 CALM      30.03R
EL DORADO      CLEAR     67  66  97 CALM      30.03R
DE QUEEN       FOG       67  66  97 CALM      30.02R VSB 1/2
$$

ARZ056-057-069-211200-
SOUTHEAST ARKANSAS

CITY           SKY/WX    TMP DP  RH WIND       PRES   REMARKS
PINE BLUFF     CLEAR     68  66  93 CALM      30.01R
STUTTGART      CLEAR     70  64  83 S3        30.01R
MONTICELLO     CLEAR     68  65  90 CALM      30.01R

$$





USA.gov is the U.S. government's official web portal to all federal, state and local government web resources and services.